www.pogodaiklimat.ru

Погода и климат >> Архив погоды >> Норвегия >> Тафьорд


ПОГОДА в Тафьорде

  • Прогноз погоды в Тафьорде
  • Монитор погоды в Тафьорде

АРХИВ ПОГОДЫ в Тафьорде

Время (UTC), дата Ветер
(напр.,м/с)
 
Видим.   Явления Облачность Т
(С)
Тd
(С)
f
(%)
Тe
(С)
Тes
(С)
Комфортность P
(гПа)
Po
(гПа)
Тmin
(С)
Tmax
(С)
R
(мм)
R24
(мм)
S
(см)
22 13.06 ЮВ 1
{8}
н/о н/о +15.7 +6.7 55 +16 +16 1013.4 1011.3
23 13.06 ЮВ 1
{4}
н/о н/о +14.4 +6.8 60 +15 +15 1013.9 1011.8
00 14.06 С 1
{12}
н/о н/о +12.0 +7.1 72 +12 +12 1014.5 1012.4
01 14.06 Ю 3
{7}
н/о н/о +15.8 +5.4 50 +15 +15 1014.7 1012.6
02 14.06 Ю 3
{5}
н/о н/о +14.1 +5.7 57 +13 +13 1014.7 1012.6
03 14.06 Ю 3
{5}
н/о н/о +14.8 +5.1 52 +14 +14 1015.1 1013.0
04 14.06 Ю 1
{5}
н/о н/о +12.5 +6.8 68 +13 +13 1015.6 1013.5
05 14.06 Ю 1
{3}
н/о н/о +12.2 +7.3 72 +12 +12 1015.7 1013.6
06 14.06 Ю 2
{7}
н/о н/о +12.1 +7.4 73 +11 +11 1015.6 1013.5 +11.7 +21.1
07 14.06
{4}
н/о н/о +12.6 +7.5 71 1015.9 1013.8
08 14.06 В 1
{3}
н/о н/о +16.5 +4.9 46 +17 +17 1015.9 1013.8
09 14.06 ЮВ 2
{8}
н/о н/о +21.3 +4.4 33 +22 +22 комфорт 1015.6 1013.6
10 14.06 Ю 6
{10}
н/о н/о +22.4 +2.0 26 +22 +22 комфорт 1015.5 1013.5
11 14.06 З 2
{9}
н/о н/о +23.3 +2.2 25 +23 +23 комфорт 1015.0 1013.0
12 14.06 ЮЗ 1
{10}
н/о н/о +25.3 +1.5 21 +24 +24 комфорт 1014.7 1012.7
13 14.06 СЗ 3
{5}
н/о н/о +22.3 +4.4 31 +22 +22 комфорт 1014.5 1012.5
14 14.06 С 2
{5}
н/о н/о +22.8 +4.4 30 +23 +23 комфорт 1014.4 1012.4
15 14.06 СВ 1
{4}
н/о н/о +23.4 +3.9 28 +23 +23 комфорт 1014.1 1012.1
16 14.06 С 1
{3}
н/о н/о +22.1 +5.5 34 +23 +23 комфорт 1014.2 1012.2
17 14.06 СВ 1
{4}
н/о н/о +19.5 +7.9 47 +21 +21 комфорт 1014.6 1012.5
18 14.06 С 1
{7}
н/о н/о +17.7 +8.0 53 +19 +19 1014.6 1012.5 +12.1 +25.3
19 14.06 З 1
{2}
н/о н/о +17.1 +9.8 62 +18 +18 1015.2 1013.1
20 14.06 СЗ 1
{2}
н/о н/о +16.4 +9.8 65 +17 +17 1015.8 1013.7
21 14.06 С 1
{2}
н/о н/о +15.7 +10.3 70 +16 +16 1016.6 1014.5
22 14.06 С 1
{1}
н/о н/о +15.4 +10.4 72 +16 +16 1017.0 1014.9
23 14.06 Ю 1
{1}
н/о н/о +14.6 +11.2 80 +15 +15 1017.5 1015.4
00 15.06 штиль 0
{2}
н/о н/о +13.9 +11.6 86 +13 +13 1017.9 1015.8
01 15.06 штиль 0
{2}
н/о н/о +13.1 +10.6 85 +13 +13 1018.5 1016.4
02 15.06 штиль 0
{1}
н/о н/о +11.5 +9.8 89 +11 +11 1019.0 1016.9
03 15.06 штиль 0
{1}
н/о н/о +11.0 +9.3 89 +10 +10 1019.5 1017.4
04 15.06 штиль 0
{1}
н/о н/о +10.7 +9.3 91 +10 +10 1019.7 1017.6
05 15.06 штиль 0
{1}
н/о н/о +10.5 +9.3 92 +10 +10 1019.8 1017.7
06 15.06 штиль 0
{2}
н/о н/о +10.9 +9.7 92 +10 +10 1019.9 1017.8 +10.4 +17.7
07 15.06 штиль 0
{1}
н/о н/о +11.4 +9.8 90 +11 +11 1019.8 1017.7
08 15.06 С 1
{1}
н/о н/о +11.7 +10.1 90 +11 +11 1019.7 1017.6
09 15.06 СВ 1
{2}
н/о н/о +17.3 +9.5 60 +18 +18 1019.2 1017.1
10 15.06 СВ 2
{3}
н/о н/о +17.8 +8.9 56 +18 +18 1019.0 1016.9
11 15.06 С 1
{3}
н/о н/о +19.2 +8.8 51 +21 +21 комфорт 1018.1 1016.0
12 15.06 С 2
{3}
н/о н/о +19.7 +8.7 49 +21 +21 комфорт 1017.3 1015.2
13 15.06 СВ 2
{5}
н/о н/о +20.6 +9.2 48 +23 +23 комфорт 1016.2 1014.2
14 15.06 СВ 3
{5}
н/о н/о +21.3 +10.5 50 +23 +23 комфорт 1015.1 1013.1
15 15.06 С 2
{5}
н/о н/о +21.6 +10.7 50 +23 +23 комфорт 1014.8 1012.8
16 15.06 С 2
{4}
н/о н/о +21.7 +11.4 52 +24 +24 комфорт 1014.4 1012.4
17 15.06 СЗ 1
{3}
н/о н/о +18.9 +11.2 61 +21 +21 комфорт 1014.2 1012.1
18 15.06 Ю 1
{5}
н/о н/о +17.5 +12.2 71 +19 +19 1014.0 1011.9 +10.9 +22.1
19 15.06 штиль 0
{1}
н/о н/о +16.5 +12.1 75 +16 +16 1013.8 1011.7
20 15.06 Ю 1
{1}
н/о н/о +15.6 +12.0 79 +16 +16 1013.7 1011.6
21 15.06 штиль 0
{2}
н/о н/о +14.9 +11.5 80 +15 +15 1014.0 1011.9
22 15.06 штиль 0
{3}
н/о н/о +14.1 +11.1 82 +14 +14 1013.8 1011.7
23 15.06
{2}
н/о н/о +13.6 +10.8 83 1013.5 1011.4
00 16.06 штиль 0
{3}
н/о н/о +12.5 +10.6 88 +12 +12 1013.4 1011.3
01 16.06 н/о
02 16.06 штиль 0
{1}
н/о н/о +11.1 +9.2 88 +10 +10 1012.7 1010.6
03 16.06 Ю 1
{2}
н/о н/о +11.7 +9.6 87 +12 +12 1012.7 1010.6
04 16.06 С 1
{3}
н/о н/о +13.2 +10.2 82 +13 +13 1012.1 1010.0
05 16.06 штиль 0
{2}
н/о н/о +13.7 +10.5 81 +13 +13 1012.2 1010.1
06 16.06 штиль 0
{3}
н/о н/о +14.2 +11.2 82 +14 +14 1012.0 1009.9 +10.9 +17.5
07 16.06 штиль 0
{2}
н/о н/о +14.4 +10.2 76 +14 +14 1011.8 1009.7
08 16.06 штиль 0
{2}
н/о н/о +14.4 +11.6 83 +14 +14 1011.8 1009.7
09 16.06 штиль 0
{2}
н/о н/о +15.8 +11.2 74 +16 +16 1011.5 1009.4
10 16.06 штиль 0
{2}
н/о н/о +15.6 +11.4 76 +15 +15 1011.7 1009.6
11 16.06 С 1
{3}
н/о н/о +16.0 +11.8 76 +17 +17 1011.6 1009.5 0.1
12 16.06 штиль 0
{3}
н/о н/о +18.4 +13.9 75 +19 +19 1011.4 1009.3
13 16.06 С 1
{4}
н/о н/о +16.5 +12.3 76 +17 +17 1011.5 1009.4
14 16.06 штиль 0
{2}
н/о н/о +16.5 +12.5 77 +16 +16 1011.7 1009.6
15 16.06 С 1
{2}
н/о н/о +16.2 +12.2 77 +17 +17 1012.0 1009.9
16 16.06
{2}
н/о н/о +16.2 +11.8 75 1012.2 1010.1
17 16.06 СЗ 1
{2}
н/о н/о +15.3 +11.9 80 +16 +16 1012.8 1010.7
18 16.06 С 1
{4}
н/о н/о +16.0 +12.4 79 +17 +17 1012.9 1010.8 +14.1 +18.4 0.1
19 16.06 СЗ 1
{2}
н/о н/о +15.2 +12.0 81 +16 +16 1013.1 1011.0
20 16.06
{3}
н/о н/о +14.5 +12.9 90 1013.3 1011.2 0.6
21 16.06 СЗ 3
{6}
н/о н/о +13.5 +12.2 92 +12 +12 1013.9 1011.8 1
22 16.06 СЗ 1
{6}
н/о н/о +12.9 +11.6 92 +13 +13 1014.3 1012.2 5
23 16.06 штиль 0
{3}
н/о н/о +12.8 +12.0 95 +12 +12 1014.6 1012.5 3
00 17.06 штиль 0
{6}
н/о н/о +12.5 +11.7 95 +12 +12 1014.6 1012.5 0.8
01 17.06 С 1
{2}
н/о н/о +12.2 +11.6 96 +12 +12 1014.7 1012.6 0.7
02 17.06 СВ 1
{2}
н/о н/о +12.3 +11.7 96 +12 +12 1014.8 1012.7 3
03 17.06 СВ 1
{1}
н/о н/о +12.5 +11.9 96 +12 +12 1014.6 1012.5 1
04 17.06 штиль 0
{1}
н/о н/о +11.9 +11.3 96 +11 +11 1014.6 1012.5 0.3
05 17.06 С 1
{1}
н/о н/о +12.2 +11.4 95 +12 +12 1014.4 1012.3
06 17.06 С 1
{2}
н/о н/о +13.0 +12.1 94 +13 +13 1014.2 1012.1 +11.9 +16.0 15
07 17.06 штиль 0
{2}
н/о н/о +12.5 +11.6 94 +12 +12 1013.8 1011.7
08 17.06 В 1
{3}
н/о н/о +12.5 +11.6 94 +12 +12 1013.4 1011.3
09 17.06 СВ 3
{4}
н/о н/о +14.9 +11.3 79 +14 +14 1012.6 1010.5
10 17.06 С 1
{3}
н/о н/о +17.2 +11.5 69 +18 +18 1012.0 1009.9
11 17.06
{3}
н/о н/о +18.3 +9.7 57 1011.6 1009.5
12 17.06 СВ 1
{4}
н/о н/о +19.3 +10.1 55 +21 +21 комфорт 1011.0 1009.0
13 17.06 СЗ 2
{4}
н/о н/о +19.2 +10.0 55 +21 +21 комфорт 1010.1 1008.1
14 17.06 ЮВ 6
{12}
н/о н/о +21.6 +3.3 30 +22 +22 комфорт 1009.5 1007.5
15 17.06 ЮВ 4
{10}
н/о н/о +21.3 +3.5 31 +21 +21 комфорт 1009.5 1007.5
16 17.06 ЮВ 5
{12}
н/о н/о +21.3 +4.4 33 +22 +22 комфорт 1008.8 1006.8
17 17.06 ЮВ 6
{11}
н/о н/о +21.0 +5.0 35 +22 +22 комфорт 1008.5 1006.5
18 17.06 Ю 2
{12}
н/о н/о +20.1 +6.1 40 +21 +21 комфорт 1008.2 1006.2 +12.4 +22.6
19 17.06 СВ 4
{8}
н/о н/о +17.7 +8.3 54 +17 +17 1008.9 1006.8
20 17.06 Ю 1
{8}
н/о н/о +14.1 +12.3 89 +14 +14 1009.7 1007.6 0.2
21 17.06 н/о
22 17.06 С 1
{4}
н/о н/о +12.6 +11.2 91 +13 +13 1009.5 1007.4 0.1
23 17.06 штиль 0
{9}
н/о н/о +13.5 +11.0 85 +13 +13 1009.9 1007.8
00 18.06 ЮЗ 1
{9}
н/о н/о +12.4 +11.3 93 +12 +12 1010.2 1008.1 0.7
01 18.06 С 1
{2}
н/о н/о +11.4 +10.5 94 +11 +11 1010.2 1008.1 0.3
02 18.06 ЮВ 1
{6}
н/о н/о +11.8 +10.4 91 +12 +12 1010.3 1008.2 0.2
03 18.06 С 1
{6}
н/о н/о +11.3 +9.7 90 +11 +11 1009.3 1007.2
04 18.06 ЮВ 1
{2}
н/о н/о +10.6 +9.5 93 +10 +10 1009.3 1007.2
05 18.06 Ю 1
{3}
н/о н/о +10.7 +9.5 92 +10 +10 1009.6 1007.5
06 18.06 Ю 2
{6}
н/о н/о +14.2 +7.0 62 +14 +14 1009.0 1006.9 +10.5 +20.1 2
07 18.06 ЮВ 2
{8}
н/о н/о +16.2 +6.9 54 +16 +16 1008.3 1006.2
08 18.06 Ю 5
{9}
н/о н/о +17.5 +2.7 37 +17 +17 1008.0 1005.9
09 18.06 Ю 6
{12}
н/о н/о +17.9 +2.7 36 +17 +17 1007.9 1005.9
10 18.06 СВ 4
{12}
н/о н/о +17.1 +5.4 46 +17 +17 1008.2 1006.1
11 18.06
{7}
н/о н/о +17.0 +5.3 46 1008.8 1006.7
12 18.06 С 2
{12}
н/о н/о +16.5 +8.0 57 +17 +17 1008.5 1006.4
13 18.06 СВ 4
{6}
н/о н/о +15.9 +6.6 54 +15 +15 1009.4 1007.3
14 18.06 С 2
{4}
н/о н/о +15.1 +8.8 66 +15 +15 1009.4 1007.3
15 18.06 СВ 1
{4}
н/о н/о +14.9 +10.3 74 +15 +15 1009.1 1007.0 0.1
16 18.06 В 1
{3}
н/о н/о +14.4 +10.2 76 +15 +15 1008.5 1006.4
17 18.06 СЗ 1
{2}
н/о н/о +14.5 +11.5 82 +15 +15 1008.1 1006.0
18 18.06 СЗ 1
{6}
н/о н/о +14.3 +9.3 72 +15 +15 1008.5 1006.4 +13.3 +18.6
19 18.06 С 1
{5}
н/о н/о +13.4 +8.1 70 +14 +14 1008.8 1006.7
20 18.06 С 3
{5}
н/о н/о +12.5 +8.8 78 +11 +11 1010.0 1007.9 0.1
21 18.06 Ю 1
{7}
н/о н/о +11.5 +9.6 88 +11 +11 1009.5 1007.4 0.4
22 18.06 Ю 1
{2}
н/о н/о +10.6 +9.5 93 +10 +10 1009.3 1007.2 0.1
23 18.06 Ю 1
{2}
н/о н/о +10.5 +9.6 94 +10 +10 1009.6 1007.5
00 19.06 штиль 0
{7}
н/о н/о +10.5 +9.3 92 +10 +10 1009.4 1007.3
01 19.06 С 1
{1}
н/о н/о +10.2 +9.3 94 +10 +10 1009.3 1007.2
02 19.06 СЗ 1
{2}
н/о н/о +10.1 +9.2 94 +10 +10 1009.5 1007.4
03 19.06 С 1
{3}
н/о н/о +10.3 +9.5 95 +10 +10 1009.7 1007.6 0.1
04 19.06 Ю 1
{3}
н/о н/о +10.6 +9.7 94 +10 +10 1010.1 1008.0 0.1
05 19.06 ЮВ 2
{5}
н/о н/о +11.2 +9.1 87 +10 +10 1009.9 1007.8 0.2
06 19.06
{5}
н/о н/о +12.3 +9.7 84 1009.8 1007.7 +10.1 +14.3
07 19.06 С 1
{2}
н/о н/о +12.9 +9.2 78 +13 +13 1009.7 1007.6
08 19.06 штиль 0
{3}
н/о н/о +13.6 +9.3 75 +13 +13 1009.7 1007.6
09 19.06 С 1
{2}
н/о н/о +13.9 +8.7 71 +14 +14 1009.9 1007.8
10 19.06 С 1
{2}
н/о н/о +14.7 +8.9 68 +15 +15 1010.1 1008.0
11 19.06 С 1
{2}
н/о н/о +15.8 +9.0 64 +17 +17 1010.2 1008.1
12 19.06 С 2
{3}
н/о н/о +15.5 +8.3 62 +15 +15 1010.3 1008.2
13 19.06 С 2
{4}
н/о н/о +16.6 +8.1 57 +17 +17 1010.1 1008.0
14 19.06 С 1
{3}
н/о н/о +16.7 +7.1 53 +18 +18 1009.5 1007.4
15 19.06 С 2
{3}
н/о н/о +16.9 +7.6 54 +17 +17 1008.8 1006.7
16 19.06 СВ 2
{3}
н/о н/о +16.7 +7.4 54 +17 +17 1008.4 1006.3
17 19.06 С 1
{2}
н/о н/о +16.3 +8.5 60 +17 +17 1008.2 1006.1
18 19.06 СЗ 1
{4}
н/о н/о +15.8 +8.8 63 +17 +17 1007.6 1005.5 +12.3 +18.3
19 19.06 штиль 0
{1}
н/о н/о +15.1 +11.1 77 +15 +15 1007.1 1005.0
20 19.06 З 1
{1}
н/о н/о +14.0 +10.8 81 +14 +14 1007.1 1005.0
21 19.06 штиль 0
{2}
н/о н/о +12.9 +10.3 84 +12 +12 1006.6 1004.5
22 19.06 С 1
{1}
н/о н/о +12.5 +9.9 84 +13 +13 1006.3 1004.2
23 19.06 штиль 0
{1}
н/о н/о +12.4 +10.3 87 +12 +12 1006.1 1004.0
00 20.06 В 1
{2}
н/о н/о +12.5 +9.9 84 +13 +13 1005.1 1003.0
01 20.06 СВ 1
{2}
н/о н/о +12.2 +9.8 85 +12 +12 1004.6 1002.5
02 20.06 Ю 1
{2}
н/о н/о +12.1 +9.7 85 +12 +12 1004.0 1001.9
03 20.06 штиль 0
{1}
н/о н/о +11.8 +9.9 88 +11 +11 1003.8 1001.7
04 20.06 С 1
{1}
н/о н/о +11.8 +10.2 90 +12 +12 1003.8 1001.7
05 20.06 штиль 0
{1}
н/о н/о +12.0 +10.4 90 +11 +11 1003.7 1001.6
06 20.06 штиль 0
{2}
н/о н/о +12.4 +10.3 87 +12 +12 1003.7 1001.6 +11.7 +15.9
07 20.06 штиль 0
{2}
н/о н/о +13.7 +10.3 80 +13 +13 1003.3 1001.2
08 20.06 С 1
{4}
н/о н/о +14.4 +10.2 76 +15 +15 1003.0 1000.9
09 20.06 С 1 н/о н/о +15.1 +9.9 71 +16 +16 1002.9 1000.8
10 20.06 СЗ 1
{3}
н/о н/о +14.9 +9.7 71 +15 +15 1002.9 1000.8
11 20.06 С 1
{4}
н/о н/о +16.2 +9.6 65 +17 +17 1002.8 1000.7
12 20.06 С 2
{4}
н/о н/о +16.1 +10.4 69 +16 +16 1003.0 1000.9
13 20.06 С 2
{4}
н/о н/о +17.1 +11.4 69 +17 +17 1002.8 1000.8
14 20.06 С 2
{5}
н/о н/о +17.0 +11.1 68 +17 +17 1002.6 1000.6
15 20.06 н/о
17 20.06 СЗ 1
{3}
н/о н/о +15.6 +10.2 70 +16 +16 1002.6 1000.5
18 20.06 С 4
{8}
н/о н/о +14.2 +11.0 81 +13 +13 1003.5 1001.4 +12.4 +18.3
19 20.06 В 3
{7}
н/о н/о +13.3 +11.9 91 +12 +12 1003.9 1001.8 1
20 20.06 СЗ 1
{1}
н/о н/о +12.6 +11.5 93 +13 +13 1004.1 1002.0 0.1

 

Местоположение метеостанции Тафьорд (Норвегия): широта 62.23 долгота 7.42 высота над уровнем моря 11 м.

В архиве по умолчанию представлена погода в Тафьорде за последнюю неделю. Архивные данные за месяц целиком и за предыдущие месяцы, начиная с января 2011 года, Вы можете получить, выбрав интересующий диапазон дат из раскрывающегося списка и нажав кнопку "Ввод!".


*Определитесь, кто Вы:
робот инопланетянин человек

Внимание! Время в таблицах - всемирное. Для получения местного времени необходимо прибавить поправку, которая равна 1 ч.

Смотрите также архив погоды в соседних городах и на ближайших метеорологических станциях:

Погода в Гротли (Норвегия) (26 км)
Погода на Маннене (Норвегия) (31 км)
Погода в Марстейне (Норвегия) (33 км)
Погода в Бьорли (Норвегия) (41 км)
Погода в Лебергсфелле (Норвегия) (43 км)
Погода в Брате (Норвегия) (44 км)
Погода в Стрын-Крокене (Норвегия) (57 км)
Погода в Рекдале (Норвегия) (58 км)
Погода в Молдэ аэропорту (Норвегия) (58 км)
Погода в Олесунне (Норвегия) (68 км)

Пояснения к столбцам:

Ветер - указаны скорость ветра в м/с - средняя за 10 мин, порывы в срок и между сроками (в фигурных скобках) и направление, откуда дует ветер: С - северный, СВ - северо-восточный, В - восточный, ЮВ - юго-восточный, Ю - южный, ЮЗ - юго-западный, З - западный, СЗ - северо-западный.
Видимость - горизонтальная дальность видимости в метрах или километрах. При видимости от 1 до 10 км при отсутствии осадков обычно наблюдается дымка, при ухудшении видимости до 1 км и менее - туман. В сухую погоду видимость может ухудшаться дымом, пылью или мглою.
Явления - указаны атмосферные явления, наблюдавшиеся в срок или в последний час перед сроком; фигурными скобками обозначены явления, наблюдавшиеся между сроками (за 1-3 часа до срока); квадратными скобками обозначены град или гололедные отложения с указанием их диаметра в мм.
Облачность - указаны через наклонную черту общая и нижняя облачность в баллах и высота нижней границы облаков в метрах; квадратными скобками обозначены формы облаков: Ci - перистые, Cs - перисто-слоистые, Cc - перисто-кучевые, Ac - высококучевые, As - высокослоистые, Sc - слоисто-кучевые, Ns - слоисто-дождевые, Cu - кучевые, Cb - кучево-дождевые. Подробнее классификацию облаков см. в Атласе облаков (PDF).
T - Температура воздуха - температура, измеренная на высоте 2 м над землей.
Td - Температура точки росы - температура, при понижении до которой содержащийся в воздухе водяной пар достигнет насыщения.
f - Относительная влажность воздуха - влажноcть воздуха, измеренная на высоте 2 м над землей.
Te - Эффективная температура - температура, которую ощущает одетый по сезону человек в тени. Характеристика душности погоды. При расчете учитывается влияние влажности воздуха и скорости ветра на теплоощущения человека.
Tes - Эффективная температура на солнце - температура, которую ощущает человек, с поправкой на солнечный нагрев. Характеристика знойности погоды. Зависит от высоты солнца над горизонтом, облачности и скорости ветра. Ночью, в пасмурную погоду, а также при ветре 12 м/с и более поправка равна нулю.
P - Атмосферное давление - приведенное к уровню моря атмосферное давление.
Po - Атмосферное давление - измеренное на уровне метеостанции атмосферное давление.
Tmin - Минимальная температура - минимум температуры воздуха на высоте 2 м над землей.
Tmax - Максимальная температура - максимум температуры воздуха на высоте 2 м над землей.
R - Количество осадков - Количество выпавших осадков за период времени, мм. При наведении курсора мыши на число - период времени, за который выпало указанное количество осадков.
R24 - Количество осадков - Количество выпавших осадков за 24 часа, мм.
S - Снежный покров - Высота снежного покрова, см. При наведении курсора мыши на число - состояние снежного покрова и степень покрытия местности в баллах.